Time,TemperatureF,DewpointF,PressureIn,WindDirection,WindDirectionDegrees,WindSpeedMPH,WindSpeedGustMPH,Humidity,HourlyPrecipIn,Conditions,Clouds,dailyrainin,SoftwareType,DateUTC
2013-09-17 00:00:00,70.3,63.5,30.08,NE,34,0.0,5.0,79,0.00,,---,0.00,VWS V14.01,2013-09-17 04:00:00,
2013-09-17 00:09:00,70.4,63.0,30.07,NNE,32,0.0,2.0,76,0.00,,,0.00,weatherlink.com 1.10,2013-09-17 04:09:00,
2013-09-17 00:25:00,70.1,63.0,30.07,NE,51,0.0,3.0,79,0.00,,,0.00,weatherlink.com 1.10,2013-09-17 04:25:00,
2013-09-17 00:41:00,69.7,63.0,30.07,NNE,32,0.0,2.0,79,0.00,,,0.00,weatherlink.com 1.10,2013-09-17 04:41:00,
2013-09-17 00:57:00,69.8,63.0,30.07,ENE,62,2.0,4.0,78,0.00,,,0.00,weatherlink.com 1.10,2013-09-17 04:57:00,
2013-09-17 01:00:00,70.3,63.5,30.08,NE,34,0.0,5.0,79,0.00,,---,0.00,VWS V14.01,2013-09-17 05:00:00,
2013-09-17 01:14:00,70.1,63.0,30.07,ESE,123,2.0,3.0,78,0.00,,,0.00,weatherlink.com 1.10,2013-09-17 05:14:00,
2013-09-17 01:31:00,70.2,63.0,30.08,ENE,74,2.0,4.0,78,0.00,,,0.00,weatherlink.com 1.10,2013-09-17 05:31:00,
2013-09-17 01:47:00,70.2,63.0,30.08,ENE,72,0.0,3.0,79,0.00,,,0.00,weatherlink.com 1.10,2013-09-17 05:47:00,
2013-09-17 02:00:00,70.8,62.5,30.08,NE,39,2.0,8.0,75,0.00,,---,0.00,VWS V14.01,2013-09-17 06:00:00,
2013-09-17 02:04:00,70.3,63.0,30.08,NE,51,2.0,6.0,78,0.00,,,0.00,weatherlink.com 1.10,2013-09-17 06:04:00,
2013-09-17 02:20:00,70.6,63.0,30.08,NE,49,5.0,5.0,77,0.00,,,0.00,weatherlink.com 1.10,2013-09-17 06:20:00,
2013-09-17 02:36:00,70.8,63.0,30.08,NE,44,5.0,9.0,76,0.00,,,0.00,weatherlink.com 1.10,2013-09-17 06:36:00,
2013-09-17 02:53:00,70.9,63.0,30.08,East,96,3.0,7.0,76,0.00,,,0.00,weatherlink.com 1.10,2013-09-17 06:53:00,
2013-09-17 03:00:00,70.8,62.5,30.08,NE,39,2.0,8.0,75,0.00,,---,0.00,VWS V14.01,2013-09-17 07:00:00,
2013-09-17 03:10:00,70.9,63.0,30.08,ENE,72,3.0,9.0,76,0.00,,,0.00,weatherlink.com 1.10,2013-09-17 07:10:00,
2013-09-17 03:26:00,70.9,63.0,30.08,NNE,24,3.0,9.0,75,0.00,,,0.00,weatherlink.com 1.10,2013-09-17 07:26:00,
2013-09-17 03:42:00,70.8,63.0,30.08,ENE,57,5.0,8.0,75,0.00,,,0.00,weatherlink.com 1.10,2013-09-17 07:42:00,
2013-09-17 03:59:00,70.7,62.0,30.08,ENE,66,4.0,9.0,75,0.00,,,0.00,weatherlink.com 1.10,2013-09-17 07:59:00,
2013-09-17 04:00:00,69.4,61.9,30.09,East,97,5.0,12.0,77,0.00,,---,0.00,VWS V14.01,2013-09-17 08:00:00,
2013-09-17 04:15:00,70.6,62.0,30.08,East,89,3.0,7.0,75,0.00,,,0.00,weatherlink.com 1.10,2013-09-17 08:15:00,
2013-09-17 04:32:00,70.5,62.0,30.07,NE,36,1.0,10.0,75,0.00,,,0.00,weatherlink.com 1.10,2013-09-17 08:32:00,
2013-09-17 04:48:00,70.3,62.0,30.08,ENE,78,5.0,7.0,75,0.00,,,0.00,weatherlink.com 1.10,2013-09-17 08:48:00,
2013-09-17 05:00:00,69.4,61.9,30.09,East,97,5.0,12.0,77,0.00,,---,0.00,VWS V14.01,2013-09-17 09:00:00,
2013-09-17 05:05:00,70.1,62.0,30.08,ENE,67,1.0,8.0,76,0.00,,,0.00,weatherlink.com 1.10,2013-09-17 09:05:00,
2013-09-17 05:21:00,69.8,62.0,30.09,NE,38,0.0,11.0,76,0.00,,,0.00,weatherlink.com 1.10,2013-09-17 09:21:00,
2013-09-17 05:38:00,69.4,62.0,30.09,ESE,105,5.0,15.0,77,0.00,,,0.00,weatherlink.com 1.10,2013-09-17 09:38:00,
2013-09-17 05:54:00,69.0,62.0,30.10,East,99,3.0,10.0,78,0.00,,,0.00,weatherlink.com 1.10,2013-09-17 09:54:00,
2013-09-17 06:00:00,66.6,60.2,30.13,ENE,61,0.0,12.0,80,0.00,,---,0.00,VWS V14.01,2013-09-17 10:00:00,
2013-09-17 06:10:00,68.5,61.0,30.10,NNE,28,2.0,9.0,78,0.00,,,0.00,weatherlink.com 1.10,2013-09-17 10:10:00,
2013-09-17 06:27:00,68.1,61.0,30.11,East,98,3.0,10.0,79,0.00,,,0.00,weatherlink.com 1.10,2013-09-17 10:27:00,
2013-09-17 06:43:00,67.6,61.0,30.11,NE,37,7.0,10.0,80,0.00,,,0.00,weatherlink.com 1.10,2013-09-17 10:43:00,
2013-09-17 06:59:00,67.2,61.0,30.11,NNE,17,3.0,10.0,80,0.00,,,0.00,weatherlink.com 1.10,2013-09-17 10:59:00,
2013-09-17 07:00:00,66.6,60.2,30.13,ENE,61,0.0,12.0,80,0.00,,---,0.00,VWS V14.01,2013-09-17 11:00:00,
2013-09-17 07:16:00,67.0,61.0,30.12,East,94,6.0,11.0,80,0.00,,,0.00,weatherlink.com 1.10,2013-09-17 11:16:00,
2013-09-17 07:32:00,66.7,60.0,30.12,East,82,6.0,11.0,80,0.00,,,0.00,weatherlink.com 1.10,2013-09-17 11:32:00,
2013-09-17 07:49:00,66.5,60.0,30.13,ENE,63,7.0,11.0,79,0.00,,,0.00,weatherlink.com 1.10,2013-09-17 11:49:00,
2013-09-17 08:00:00,67.4,60.0,30.17,East,87,5.0,16.0,77,0.00,,---,0.00,VWS V14.01,2013-09-17 12:00:00,
2013-09-17 08:05:00,66.5,60.0,30.14,East,101,2.0,13.0,79,0.00,,,0.00,weatherlink.com 1.10,2013-09-17 12:05:00,
2013-09-17 08:22:00,66.5,60.0,30.14,NE,47,5.0,12.0,79,0.00,,,0.00,weatherlink.com 1.10,2013-09-17 12:22:00,
2013-09-17 08:39:00,66.6,60.0,30.15,ENE,72,1.0,15.0,79,0.00,,,0.00,weatherlink.com 1.10,2013-09-17 12:39:00,
2013-09-17 08:55:00,67.2,60.0,30.15,ENE,60,5.0,15.0,78,0.00,,,0.00,weatherlink.com 1.10,2013-09-17 12:55:00,
2013-09-17 09:00:00,67.4,60.0,30.17,East,87,5.0,16.0,77,0.00,,---,0.00,VWS V14.01,2013-09-17 13:00:00,
2013-09-17 09:12:00,67.8,61.0,30.16,East,91,5.0,11.0,78,0.00,,,0.00,weatherlink.com 1.10,2013-09-17 13:12:00,
2013-09-17 09:28:00,67.5,60.0,30.17,NE,40,4.0,12.0,78,0.00,,,0.00,weatherlink.com 1.10,2013-09-17 13:28:00,
2013-09-17 09:45:00,67.5,60.0,30.17,NE,36,2.0,16.0,77,0.00,,,0.00,weatherlink.com 1.10,2013-09-17 13:45:00,
2013-09-17 10:00:00,69.5,59.3,30.20,ENE,70,3.0,15.0,70,0.00,,---,0.00,VWS V14.01,2013-09-17 14:00:00,
2013-09-17 10:01:00,67.9,60.0,30.18,WNW,294,1.0,16.0,75,0.00,,,0.00,weatherlink.com 1.10,2013-09-17 14:01:00,
2013-09-17 10:17:00,68.0,59.0,30.18,NNE,24,5.0,13.0,73,0.00,,,0.00,weatherlink.com 1.10,2013-09-17 14:17:00,
2013-09-17 10:34:00,68.2,60.0,30.20,East,88,1.0,13.0,74,0.00,,,0.00,weatherlink.com 1.10,2013-09-17 14:34:00,
2013-09-17 10:50:00,68.0,59.0,30.20,NE,40,4.0,16.0,73,0.00,,,0.00,weatherlink.com 1.10,2013-09-17 14:50:00,
2013-09-17 11:00:00,69.5,59.3,30.20,ENE,70,3.0,15.0,70,0.00,,---,0.00,VWS V14.01,2013-09-17 15:00:00,
2013-09-17 11:06:00,68.3,59.0,30.20,NE,44,8.0,13.0,73,0.00,,,0.00,weatherlink.com 1.10,2013-09-17 15:06:00,
2013-09-17 11:23:00,68.9,59.0,30.20,North,360,5.0,13.0,71,0.00,,,0.00,weatherlink.com 1.10,2013-09-17 15:23:00,
2013-09-17 11:40:00,69.7,60.0,30.20,NE,44,6.0,11.0,70,0.00,,,0.00,weatherlink.com 1.10,2013-09-17 15:40:00,
2013-09-17 11:56:00,69.9,59.0,30.21,East,96,5.0,15.0,68,0.00,,,0.00,weatherlink.com 1.10,2013-09-17 15:56:00,
2013-09-17 12:00:00,71.6,59.2,30.18,NE,51,1.0,15.0,65,0.00,,---,0.00,VWS V14.01,2013-09-17 16:00:00,
2013-09-17 12:12:00,69.8,59.0,30.20,NW,322,2.0,13.0,68,0.00,,,0.00,weatherlink.com 1.10,2013-09-17 16:12:00,
2013-09-17 12:29:00,69.7,58.0,30.20,ENE,73,4.0,14.0,67,0.00,,,0.00,weatherlink.com 1.10,2013-09-17 16:29:00,
2013-09-17 12:46:00,70.3,59.0,30.20,ESE,113,0.0,11.0,68,0.00,,,0.00,weatherlink.com 1.10,2013-09-17 16:46:00,
2013-09-17 13:00:00,71.6,59.2,30.18,NE,51,1.0,15.0,65,0.00,,---,0.00,VWS V14.01,2013-09-17 17:00:00,
2013-09-17 13:02:00,70.4,59.0,30.19,ENE,61,3.0,11.0,67,0.00,,,0.00,weatherlink.com 1.10,2013-09-17 17:02:00,
2013-09-17 13:18:00,71.2,59.0,30.19,East,80,10.0,14.0,66,0.00,,,0.00,weatherlink.com 1.10,2013-09-17 17:18:00,
2013-09-17 13:34:00,71.3,59.0,30.18,ENE,69,2.0,8.0,66,0.00,,,0.00,weatherlink.com 1.10,2013-09-17 17:34:00,
2013-09-17 13:51:00,71.7,60.0,30.18,ESE,115,5.0,10.0,66,0.00,,,0.00,weatherlink.com 1.10,2013-09-17 17:51:00,
2013-09-17 14:00:00,71.4,59.9,30.14,NNE,14,3.0,13.0,67,0.00,,---,0.00,VWS V14.01,2013-09-17 18:00:00,
2013-09-17 14:07:00,71.5,59.0,30.17,NE,54,3.0,10.0,66,0.00,,,0.00,weatherlink.com 1.10,2013-09-17 18:07:00,
2013-09-17 14:24:00,71.5,59.0,30.17,NNE,15,4.0,12.0,65,0.00,,,0.00,weatherlink.com 1.10,2013-09-17 18:24:00,
2013-09-17 14:40:00,71.0,59.0,30.16,North,5,7.0,10.0,67,0.00,,,0.00,weatherlink.com 1.10,2013-09-17 18:40:00,
2013-09-17 14:56:00,71.4,59.0,30.16,NE,34,6.0,10.0,66,0.00,,,0.00,weatherlink.com 1.10,2013-09-17 18:56:00,
2013-09-17 15:00:00,71.4,59.9,30.14,NNE,14,3.0,13.0,67,0.00,,---,0.00,VWS V14.01,2013-09-17 19:00:00,
2013-09-17 15:13:00,71.4,60.0,30.15,SE,125,2.0,10.0,68,0.00,,,0.00,weatherlink.com 1.10,2013-09-17 19:13:00,
2013-09-17 15:30:00,71.6,60.0,30.15,ENE,70,1.0,11.0,67,0.00,,,0.00,weatherlink.com 1.10,2013-09-17 19:30:00,
2013-09-17 15:46:00,72.0,60.0,30.14,ESE,112,3.0,11.0,67,0.00,,,0.00,weatherlink.com 1.10,2013-09-17 19:46:00,
2013-09-17 16:00:00,70.5,59.8,30.13,NE,54,2.0,12.0,69,0.00,,---,0.00,VWS V14.01,2013-09-17 20:00:00,
2013-09-17 16:02:00,71.8,60.0,30.13,East,84,6.0,11.0,66,0.00,,,0.00,weatherlink.com 1.10,2013-09-17 20:02:00,
2013-09-17 16:19:00,71.9,60.0,30.13,NNE,24,6.0,12.0,67,0.00,,,0.00,weatherlink.com 1.10,2013-09-17 20:19:00,
2013-09-17 16:36:00,71.3,60.0,30.13,ENE,65,5.0,11.0,68,0.00,,,0.00,weatherlink.com 1.10,2013-09-17 20:36:00,
2013-09-17 16:51:00,71.3,61.0,30.13,ENE,69,8.0,8.0,69,0.00,,,0.00,weatherlink.com 1.10,2013-09-17 20:51:00,
2013-09-17 17:00:00,70.5,59.8,30.13,NE,54,2.0,12.0,69,0.00,,---,0.00,VWS V14.01,2013-09-17 21:00:00,
2013-09-17 17:08:00,70.7,60.0,30.13,ENE,65,7.0,11.0,68,0.00,,,0.00,weatherlink.com 1.10,2013-09-17 21:08:00,
2013-09-17 17:25:00,70.5,60.0,30.13,NNE,17,3.0,10.0,69,0.00,,,0.00,weatherlink.com 1.10,2013-09-17 21:25:00,
2013-09-17 17:41:00,70.4,60.0,30.13,NNE,19,3.0,9.0,70,0.00,,,0.00,weatherlink.com 1.10,2013-09-17 21:41:00,
2013-09-17 17:58:00,70.1,60.0,30.13,ENE,71,3.0,8.0,70,0.00,,,0.00,weatherlink.com 1.10,2013-09-17 21:58:00,
2013-09-17 18:00:00,68.0,60.2,30.13,NNE,31,0.0,13.0,76,0.00,,---,0.00,VWS V14.01,2013-09-17 22:00:00,
2013-09-17 18:14:00,70.2,60.0,30.13,SE,129,2.0,11.0,70,0.00,,,0.00,weatherlink.com 1.10,2013-09-17 22:14:00,
2013-09-17 18:30:00,69.6,59.0,30.13,NE,42,6.0,11.0,70,0.00,,,0.00,weatherlink.com 1.10,2013-09-17 22:30:00,
2013-09-17 18:46:00,69.1,60.0,30.13,NNE,17,1.0,6.0,72,0.00,,,0.00,weatherlink.com 1.10,2013-09-17 22:46:00,
2013-09-17 19:00:00,68.0,60.2,30.13,NNE,31,0.0,13.0,76,0.00,,---,0.00,VWS V14.01,2013-09-17 23:00:00,
2013-09-17 19:04:00,68.8,60.0,30.13,ESE,112,2.0,5.0,73,0.00,,,0.00,weatherlink.com 1.10,2013-09-17 23:04:00,
2013-09-17 19:20:00,68.4,60.0,30.13,ENE,69,3.0,5.0,75,0.00,,,0.00,weatherlink.com 1.10,2013-09-17 23:20:00,
2013-09-17 19:36:00,68.1,60.0,30.13,NNE,28,2.0,4.0,76,0.00,,,0.00,weatherlink.com 1.10,2013-09-17 23:36:00,
2013-09-17 19:52:00,67.7,60.0,30.13,NNE,22,4.0,6.0,77,0.00,,,0.00,weatherlink.com 1.10,2013-09-17 23:52:00,
2013-09-17 20:00:00,66.1,60.1,30.16,NNE,23,1.0,7.0,81,0.00,,---,0.00,VWS V14.01,2013-09-18 00:00:00,
2013-09-17 20:10:00,67.4,60.0,30.14,NNE,33,2.0,4.0,78,0.00,,,0.00,weatherlink.com 1.10,2013-09-18 00:10:00,
2013-09-17 20:25:00,67.1,60.0,30.15,NE,53,1.0,6.0,79,0.00,,,0.00,weatherlink.com 1.10,2013-09-18 00:25:00,
2013-09-17 20:42:00,66.7,60.0,30.15,East,94,3.0,5.0,79,0.00,,,0.00,weatherlink.com 1.10,2013-09-18 00:42:00,
2013-09-17 20:58:00,66.5,60.0,30.15,ENE,68,4.0,4.0,79,0.00,,,0.00,weatherlink.com 1.10,2013-09-18 00:58:00,
2013-09-17 21:00:00,66.1,60.1,30.16,NNE,23,1.0,7.0,81,0.00,,---,0.00,VWS V14.01,2013-09-18 01:00:00,
2013-09-17 21:15:00,66.3,60.0,30.16,NE,50,2.0,5.0,80,0.00,,,0.00,weatherlink.com 1.10,2013-09-18 01:15:00,
2013-09-17 21:31:00,66.2,60.0,30.16,NNE,30,0.0,6.0,81,0.00,,,0.00,weatherlink.com 1.10,2013-09-18 01:31:00,
2013-09-17 21:48:00,66.0,60.0,30.17,NNE,18,3.0,7.0,81,0.00,,,0.00,weatherlink.com 1.10,2013-09-18 01:48:00,
2013-09-17 22:00:00,65.9,58.8,30.18,SE,126,2.0,9.0,78,0.00,,---,0.00,VWS V14.01,2013-09-18 02:00:00,
2013-09-17 22:04:00,65.9,60.0,30.18,NE,55,3.0,6.0,82,0.00,,,0.00,weatherlink.com 1.10,2013-09-18 02:04:00,
2013-09-17 22:20:00,65.8,60.0,30.18,NNE,26,0.0,7.0,82,0.00,,,0.00,weatherlink.com 1.10,2013-09-18 02:20:00,
2013-09-17 22:37:00,65.8,60.0,30.18,North,9,3.0,10.0,81,0.00,,,0.00,weatherlink.com 1.10,2013-09-18 02:37:00,
2013-09-17 22:54:00,65.7,60.0,30.18,ENE,59,5.0,8.0,81,0.00,,,0.00,weatherlink.com 1.10,2013-09-18 02:54:00,
2013-09-17 23:00:00,65.9,58.8,30.18,SE,126,2.0,9.0,78,0.00,,---,0.00,VWS V14.01,2013-09-18 03:00:00,
2013-09-17 23:10:00,65.7,59.0,30.18,East,80,3.0,8.0,79,0.00,,,0.00,weatherlink.com 1.10,2013-09-18 03:10:00,
2013-09-17 23:26:00,65.8,59.0,30.18,NNE,30,0.0,5.0,79,0.00,,,0.00,weatherlink.com 1.10,2013-09-18 03:26:00,
2013-09-17 23:43:00,65.9,59.0,30.18,ENE,62,5.0,8.0,78,0.00,,,0.00,weatherlink.com 1.10,2013-09-18 03:43:00,
2013-09-17 23:59:00,66.1,59.0,30.18,ENE,64,3.0,8.0,77,0.00,,,0.00,weatherlink.com 1.10,2013-09-18 03:59:00,